Bishop International Airport Flint US
ICAO: KFNT
IATA: FNT
Category: Medium
Scheduled Services: Yes

Elevation: 782 ft
TransAlt. 18000 ft.

Airport Communications:
FLINT APP/DEP:118.8
ATIS:133.15
CLNC DEL:121.75
CTAF:126.3
FLINT GND:121.9
LANSING RDO:122.3
FLINT TWR:126.3
UNICOM:122.95

KFNT Zoom In..

If you have problems with the map follow the link
https://www.worldairports.se/pages/airport.php?
ICAO=KFNT

Runways:

(A) RW 09 length 7200 ft width 150 ft
ILS 109.90 / hdg 94

(B) RW 18 length 7848 ft width 150 ft
---- / hdg 185

(C) RW 27 length 7200 ft width 150 ft
ILS 109.90 / hdg 274

(D) RW 36 length 7848 ft width 150 ft
---- / hdg 5

Location; KFNT
Day. 18 / Time. 21.53 Zulu
* Altimeter: 30.18
* Temperature: -03° c. -26.6°f.
* Wind from: 310° Speed 06 kn.
Dewpoint: -09° c.
Visibility: 10 Statute Miles.
Clouds: Overcast 11000 ft.

KFNT 182153Z 31006KT 10SM OVC110 M03/M09 A3018 RMK AO2 SLP233 T10331094


Wind From 310°
Speed 06 kn.

 
 
jpsmedia.com for Web Design worldairports.se 2019   terms of use